Weather History for Santa Ana, CA

Change the Weather History Date:

Sunday, March 4, 2012

  Actual Average Record
Temperature  
Mean Temperature 69 °F 59 °F  
Max Temperature 87 °F 67 °F 87 °F (2012)
Min Temperature 50 °F 50 °F 42 °F (2002)
Degree Days  
Heating Degree Days 0 7  
Month to date heating degree days 14 28  
Since 1 July heating degree days 818 934  
Cooling Degree Days 4 0  
Month to date cooling degree days 4 0  
Year to date cooling degree days 19 8  
Growing Degree Days 17 (Base 50)    
Moisture  
Dew Point 34 °F    
Average Humidity 32    
Maximum Humidity 54    
Minimum Humidity 10    
Precipitation  
Precipitation 0.00 in 0.13 in 0.22 in (2000)
Month to date precipitation 0.00 0.52  
Year to date precipitation 1.37 6.38  
Since 1 July precipitation 3.82 10.75  
Snow  
Snow 0.00 in - - ()
Month to date snowfall 0.0  
Year to date snowfall 0.0  
Since 1 July snowfall 0.0  
Snow Depth 0.00 in    
Sea Level Pressure  
Sea Level Pressure 30.04 in    
Wind  
Wind Speed 2 mph (SW)    
Max Wind Speed 10 mph    
Max Gust Speed 14 mph    
Visibility 10 miles    
Events      
T = Trace of Precipitation, MM = Missing Value Source: NWS Daily Summary

Daily Weather History Graph

Daily Weather History Graph

Search for Another Location

Airport:

Trip Planner

Search our weather history database for the weather conditions in past years. The results will help you decide how hot, cold, wet, or windy it might be!

Date:

Astronomy

Mar. 04, 2012 Rise Set
Actual Time 6:15 AM PST 5:51 PM PST
Civil Twilight 5:50 AM PST 6:16 PM PST
Nautical Twilight 5:21 AM PST 6:44 PM PST
Astronomical Twilight 4:52 AM PST 7:13 PM PST
Moon 2:17 PM PST (3/4) 3:29 AM PST (3/4)
Length of Visible Light 12h 25m
Length of Day
11h 35m
Waxing Gibbous, 84% of the Moon is Illuminated
Mar 4
Waxing Gibbous
Mar 8
Full
Mar 14
Last Quarter
Mar 22
New
Mar 30
First Quarter

Hourly Weather History & Observations

Time (PST) Temp. Dew Point Humidity Pressure Visibility Wind Dir Wind Speed Gust Speed Precip Events Conditions
12:53 AM 55.0 °F 35.1 °F 47% 30.14 in 10.0 mi Calm Calm - N/A   Clear
1:53 AM 54.0 °F 35.1 °F 49% 30.12 in 10.0 mi Calm Calm - N/A   Clear
2:53 AM 53.1 °F 35.1 °F 50% 30.10 in 10.0 mi Calm Calm - N/A   Clear
3:53 AM 52.0 °F 35.1 °F 53% 30.09 in 10.0 mi Calm Calm - N/A   Clear
4:53 AM 51.1 °F 35.1 °F 54% 30.08 in 10.0 mi Calm Calm - N/A   Clear
5:53 AM 50.0 °F 34.0 °F 54% 30.09 in 10.0 mi Calm Calm - N/A   Partly Cloudy
6:53 AM 51.1 °F 36.0 °F 56% 30.09 in 10.0 mi Calm Calm - N/A   Partly Cloudy
7:53 AM 57.9 °F 36.0 °F 44% 30.11 in 10.0 mi Calm Calm - N/A   Partly Cloudy
8:53 AM 64.9 °F 34.0 °F 32% 30.10 in 10.0 mi SW 3.5 mph - N/A   Partly Cloudy
9:53 AM 73.9 °F 32.0 °F 21% 30.09 in 10.0 mi Calm Calm - N/A   Partly Cloudy
10:53 AM 80.1 °F 27.0 °F 14% 30.08 in 10.0 mi Variable 4.6 mph - N/A   Partly Cloudy
11:53 AM 82.9 °F 23.0 °F 11% 30.05 in 10.0 mi Variable 3.5 mph - N/A   Partly Cloudy
12:53 PM 84.9 °F 21.9 °F 10% 30.01 in 10.0 mi SW 5.8 mph - N/A   Partly Cloudy
1:53 PM 82.9 °F 28.9 °F 14% 29.99 in 10.0 mi SW 10.4 mph - N/A   Scattered Clouds
2:53 PM 82.9 °F 28.9 °F 14% 29.97 in 10.0 mi WSW 6.9 mph - N/A   Scattered Clouds
3:53 PM 82.0 °F 30.0 °F 15% 29.96 in 10.0 mi SW 6.9 mph - N/A   Scattered Clouds
4:53 PM 75.0 °F 41.0 °F 29% 29.96 in 10.0 mi SSW 9.2 mph - N/A   Scattered Clouds
5:53 PM 69.1 °F 41.0 °F 36% 29.97 in 10.0 mi SSW 8.1 mph - N/A   Scattered Clouds
6:53 PM 69.1 °F 39.9 °F 35% 29.98 in 10.0 mi Calm Calm - N/A   Clear
7:53 PM 69.1 °F 39.0 °F 33% 29.99 in 10.0 mi Calm Calm - N/A   Partly Cloudy
8:53 PM 66.9 °F 37.9 °F 34% 29.99 in 10.0 mi Calm Calm - N/A   Partly Cloudy
9:53 PM 64.9 °F 37.9 °F 37% 29.99 in 10.0 mi Calm Calm - N/A   Partly Cloudy
10:53 PM 63.0 °F 39.9 °F 43% 29.99 in 10.0 mi Calm Calm - N/A   Clear
11:53 PM 60.1 °F 39.9 °F 47% 29.98 in 10.0 mi Calm Calm - N/A   Clear